sat.trackr.live / text

‹ back to catalog

STARLINK-31600

NORAD 59341 · 2024-057X

PAYLOAD ACTIVE UNKNOWN

§ Identity

Operator
Country
US
Launch date
2024-03-25
Launch site
AFETR
Launch vehicle
Mass (kg)
RCS (m²)

Purposes: comms

External: N2YO · Heavens-Above · Gunter

§ Orbital elements

Epoch: 2026-05-25T05:10:44.122080Z

Period
94.27 min
Inclination
43.0003°
Eccentricity
0.0000943
Mean motion
15.27584058 rev/d
Perigee alt
482.4 km
Apogee alt
483.7 km
Semi-major
6,861.2 km
B*
-2.7558e-5
RAAN
122.5984°
Arg perigee
258.8305°
Mean anomaly
101.2440°
Rev number
12,145

§ Raw data

STARLINK-316001 59341U 24057X   26145.21578845 -.00001020  00000+0 -27558-4 0  99932 59341  43.0003 122.5984 0000943 258.8305 101.2440 15.27584058121452

JSON: /api/v1/satellites/59341 · /tle

For live sub-satellite position, see the globe view (requires WebGL).

§ Visibility from observer

Set your observer location to see the next 7 days of passes ≥ 10°. The values pass through the URL so the page stays shareable.

No JS? Fill the form by hand. The geolocation button needs JavaScript.